TimeCDT,TemperatureF,Dew PointF,Humidity,Sea Level PressureIn,VisibilityMPH,Wind Direction,Wind SpeedMPH,Gust SpeedMPH,PrecipitationIn,Events,Conditions,WindDirDegrees,DateUTC
12:11 AM,37.4,30.2,75,29.94,10.0,Calm,Calm,-,N/A,,Mostly Cloudy,0,2012-11-01 05:11:00
12:32 AM,37.4,30.2,75,29.94,10.0,Calm,Calm,-,N/A,,Overcast,0,2012-11-01 05:32:00
12:52 AM,37.4,32.0,81,29.93,10.0,Calm,Calm,-,N/A,,Overcast,0,2012-11-01 05:52:00
1:11 AM,37.4,33.8,87,29.93,10.0,Calm,Calm,-,N/A,,Overcast,0,2012-11-01 06:11:00
1:32 AM,37.4,30.2,75,29.93,10.0,Calm,Calm,-,N/A,,Overcast,0,2012-11-01 06:32:00
1:52 AM,39.2,30.2,70,29.92,10.0,Calm,Calm,-,N/A,,Overcast,0,2012-11-01 06:52:00
2:11 AM,39.2,32.0,75,29.92,10.0,Calm,Calm,-,N/A,,Overcast,0,2012-11-01 07:11:00
2:32 AM,39.2,30.2,70,29.92,10.0,Calm,Calm,-,N/A,,Overcast,0,2012-11-01 07:32:00
2:52 AM,39.2,32.0,75,29.92,10.0,Calm,Calm,-,N/A,,Overcast,0,2012-11-01 07:52:00
3:11 AM,39.2,33.8,81,29.92,10.0,Calm,Calm,-,N/A,,Overcast,0,2012-11-01 08:11:00
3:32 AM,39.2,33.8,81,29.91,10.0,Calm,Calm,-,N/A,,Overcast,0,2012-11-01 08:32:00
3:52 AM,41.0,30.2,65,29.91,10.0,Calm,Calm,-,N/A,,Overcast,0,2012-11-01 08:52:00
4:11 AM,41.0,30.2,65,29.91,10.0,Calm,Calm,-,N/A,,Overcast,0,2012-11-01 09:11:00
4:32 AM,41.0,32.0,70,29.91,10.0,Calm,Calm,-,N/A,,Overcast,0,2012-11-01 09:32:00
4:52 AM,41.0,30.2,65,29.91,10.0,Calm,Calm,-,N/A,,Overcast,0,2012-11-01 09:52:00
5:12 AM,42.8,32.0,66,29.92,10.0,WNW,4.6,-,N/A,,Overcast,290,2012-11-01 10:12:00
5:32 AM,41.0,32.0,70,29.91,10.0,WNW,4.6,-,N/A,,Overcast,290,2012-11-01 10:32:00
5:52 AM,39.2,32.0,75,29.92,10.0,WNW,3.5,-,N/A,,Mostly Cloudy,290,2012-11-01 10:52:00
6:12 AM,39.2,32.0,75,29.92,10.0,WNW,3.5,-,N/A,,Scattered Clouds,290,2012-11-01 11:12:00
6:32 AM,37.4,32.0,81,29.92,10.0,WNW,5.8,-,N/A,,Mostly Cloudy,290,2012-11-01 11:32:00
6:52 AM,37.4,30.2,75,29.93,10.0,WNW,5.8,-,N/A,,Mostly Cloudy,290,2012-11-01 11:52:00
7:32 AM,37.4,30.2,75,29.94,10.0,NW,4.6,-,N/A,,Clear,310,2012-11-01 12:32:00
7:52 AM,37.4,30.2,75,29.94,10.0,NW,6.9,-,N/A,,Scattered Clouds,320,2012-11-01 12:52:00
8:32 AM,37.4,33.8,87,29.95,10.0,NNW,10.4,16.1,N/A,,Clear,330,2012-11-01 13:32:00
8:52 AM,39.2,33.8,81,29.96,7.0,NNW,10.4,16.1,N/A,,Scattered Clouds,340,2012-11-01 13:52:00
9:12 AM,39.2,33.8,81,29.96,7.0,NNW,8.1,-,N/A,,Overcast,340,2012-11-01 14:12:00
9:32 AM,39.2,35.6,87,29.97,7.0,NNW,10.4,17.3,N/A,,Overcast,340,2012-11-01 14:32:00
9:51 AM,41.0,35.6,81,29.97,7.0,NNW,13.8,19.6,N/A,,Scattered Clouds,340,2012-11-01 14:51:00
10:12 AM,42.8,35.6,76,29.97,10.0,North,12.7,18.4,N/A,,Scattered Clouds,350,2012-11-01 15:12:00
10:32 AM,42.8,35.6,76,29.97,10.0,North,13.8,19.6,N/A,,Scattered Clouds,350,2012-11-01 15:32:00
10:51 AM,42.8,35.6,76,29.96,10.0,North,15.0,21.9,N/A,,Scattered Clouds,350,2012-11-01 15:51:00
11:12 AM,44.6,33.8,66,29.97,10.0,NNW,15.0,-,N/A,,Mostly Cloudy,340,2012-11-01 16:12:00
11:32 AM,42.8,33.8,70,29.97,10.0,NNW,10.4,18.4,N/A,,Mostly Cloudy,340,2012-11-01 16:32:00
11:51 AM,42.8,33.8,70,29.97,10.0,NNW,13.8,17.3,N/A,,Overcast,340,2012-11-01 16:51:00
12:12 PM,44.6,33.8,66,29.97,10.0,North,12.7,-,N/A,,Mostly Cloudy,350,2012-11-01 17:12:00
12:31 PM,44.6,32.0,61,29.96,10.0,NNW,15.0,20.7,N/A,,Mostly Cloudy,340,2012-11-01 17:31:00
12:52 PM,44.6,30.2,57,29.96,10.0,NNW,12.7,17.3,N/A,,Scattered Clouds,340,2012-11-01 17:52:00
1:12 PM,44.6,30.2,57,29.96,10.0,NNW,10.4,-,N/A,,Scattered Clouds,330,2012-11-01 18:12:00
1:32 PM,46.4,30.2,53,29.95,10.0,NW,8.1,17.3,N/A,,Scattered Clouds,310,2012-11-01 18:32:00
1:52 PM,46.4,30.2,53,29.94,10.0,NNW,11.5,-,N/A,,Clear,330,2012-11-01 18:52:00
2:11 PM,46.4,30.2,53,29.94,10.0,NNW,11.5,-,N/A,,Clear,330,2012-11-01 19:11:00
2:32 PM,46.4,30.2,53,29.94,10.0,NNW,11.5,18.4,N/A,,Clear,330,2012-11-01 19:32:00
2:52 PM,46.4,30.2,53,29.93,10.0,NW,9.2,-,N/A,,Clear,310,2012-11-01 19:52:00
3:11 PM,46.4,30.2,53,29.93,10.0,NW,12.7,20.7,N/A,,Clear,320,2012-11-01 20:11:00
3:52 PM,46.4,28.4,50,29.94,10.0,NNW,11.5,20.7,N/A,,Clear,340,2012-11-01 20:52:00
4:11 PM,44.6,28.4,53,29.94,10.0,NW,11.5,19.6,N/A,,Clear,320,2012-11-01 21:11:00
4:52 PM,44.6,26.6,49,29.94,10.0,NNW,11.5,16.1,N/A,,Clear,340,2012-11-01 21:52:00
5:11 PM,44.6,26.6,49,29.95,10.0,NNW,10.4,16.1,N/A,,Clear,330,2012-11-01 22:11:00
5:32 PM,42.8,24.8,49,29.95,10.0,NW,10.4,-,N/A,,Clear,320,2012-11-01 22:32:00
5:52 PM,41.0,24.8,53,29.95,10.0,NNW,9.2,-,N/A,,Clear,340,2012-11-01 22:52:00
6:11 PM,39.2,24.8,56,29.96,10.0,North,6.9,-,N/A,,Clear,350,2012-11-01 23:11:00
6:32 PM,37.4,24.8,60,29.96,10.0,North,6.9,-,N/A,,Clear,360,2012-11-01 23:32:00
6:52 PM,37.4,24.8,60,29.96,10.0,North,6.9,-,N/A,,Clear,360,2012-11-01 23:52:00
7:11 PM,35.6,24.8,65,29.98,10.0,North,5.8,-,N/A,,Clear,360,2012-11-02 00:11:00
7:32 PM,33.8,24.8,70,29.98,10.0,North,5.8,-,N/A,,Clear,360,2012-11-02 00:32:00
7:52 PM,33.8,24.8,70,29.98,10.0,North,6.9,-,N/A,,Clear,360,2012-11-02 00:52:00
8:11 PM,33.8,24.8,70,29.98,10.0,North,4.6,-,N/A,,Clear,350,2012-11-02 01:11:00
8:32 PM,32.0,24.8,75,29.98,10.0,North,6.9,-,N/A,,Clear,360,2012-11-02 01:32:00
8:52 PM,32.0,24.8,75,29.98,10.0,North,5.8,-,N/A,,Clear,360,2012-11-02 01:52:00
9:11 PM,32.0,24.8,75,29.99,10.0,North,3.5,-,N/A,,Clear,350,2012-11-02 02:11:00
9:32 PM,30.2,24.8,80,29.99,10.0,North,6.9,-,N/A,,Clear,10,2012-11-02 02:32:00
9:52 PM,30.2,24.8,80,30.00,10.0,North,5.8,-,N/A,,Clear,10,2012-11-02 02:52:00
10:11 PM,30.2,24.8,80,30.01,10.0,North,5.8,-,N/A,,Clear,10,2012-11-02 03:11:00
10:32 PM,30.2,24.8,80,30.01,10.0,NNE,6.9,-,N/A,,Clear,20,2012-11-02 03:32:00
10:51 PM,30.2,24.8,80,30.00,10.0,NNE,8.1,-,N/A,,Clear,30,2012-11-02 03:51:00
11:12 PM,30.2,24.8,80,30.01,10.0,NNE,8.1,-,N/A,,Clear,30,2012-11-02 04:12:00
11:32 PM,28.4,24.8,86,30.01,10.0,NNE,6.9,-,N/A,,Clear,30,2012-11-02 04:32:00
11:52 PM,28.4,24.8,86,30.01,10.0,NNE,6.9,-,N/A,,Clear,30,2012-11-02 04:52:00